| time (UTC) | temp C | wind direction | speed KPH | gust KPH | rain 1hr cm | rain 24hr cm | rain mn cm | humidity % | barometer mb |
| 20260503042805 | 13 | 203 | 8.0 | 16.1 | 0.00 | 0.00 | 0.00 | 41 | 1011.9 |
| 20260503042305 | 13 | 198 | 9.7 | 14.5 | 0.00 | 0.00 | 0.00 | 41 | 1011.9 |
| 20260503041805 | 13 | 199 | 4.8 | 14.5 | 0.00 | 0.00 | 0.00 | 41 | 1011.9 |
| 20260503041305 | 13 | 206 | 9.7 | 16.1 | 0.00 | 0.00 | 0.00 | 41 | 1011.9 |
| 20260503040804 | 13 | 192 | 8.0 | 16.1 | 0.00 | 0.00 | 0.00 | 41 | 1011.9 |
| 20260503040305 | 13 | 166 | 8.0 | 14.5 | 0.00 | 0.00 | 0.00 | 41 | 1011.9 |
| 20260503035805 | 13 | 188 | 9.7 | 16.1 | 0.00 | 0.00 | 0.00 | 41 | 1011.9 |
| 20260503035305 | 13 | 197 | 8.0 | 12.9 | 0.00 | 0.00 | 0.00 | 40 | 1011.9 |
| 20260503034806 | 13 | 195 | 9.7 | 16.1 | 0.00 | 0.00 | 0.00 | 40 | 1011.9 |
| 20260503034305 | 13 | 205 | 8.0 | 14.5 | 0.00 | 0.00 | 0.00 | 40 | 1011.9 |
| 20260503033805 | 13 | 197 | 8.0 | 16.1 | 0.00 | 0.00 | 0.00 | 41 | 1011.9 |
| 20260503033305 | 13 | 192 | 9.7 | 19.3 | 0.00 | 0.00 | 0.00 | 40 | 1011.9 |
| 20260503032806 | 13 | 197 | 9.7 | 12.9 | 0.00 | 0.00 | 0.00 | 40 | 1011.9 |
| 20260503031805 | 13 | 194 | 6.4 | 12.9 | 0.00 | 0.00 | 0.00 | 39 | 1011.9 |
| 20260503031305 | 13 | 204 | 4.8 | 11.3 | 0.00 | 0.00 | 0.00 | 39 | 1011.9 |
| 20260503030805 | 13 | 215 | 4.8 | 12.9 | 0.00 | 0.00 | 0.00 | 40 | 1011.9 |
| 20260503030306 | 13 | 197 | 8.0 | 12.9 | 0.00 | 0.00 | 0.00 | 40 | 1011.9 |
| 20260503025805 | 13 | 193 | 9.7 | 12.9 | 0.00 | 0.00 | 0.00 | 41 | 1011.9 |
| 20260503025305 | 13 | 200 | 9.7 | 16.1 | 0.00 | 0.00 | 0.00 | 40 | 1011.9 |
| 20260503024806 | 13 | 176 | 8.0 | 11.3 | 0.00 | 0.00 | 0.00 | 41 | 1011.9 |
| 20260503024305 | 13 | 203 | 4.8 | 11.3 | 0.00 | 0.00 | 0.00 | 40 | 1011.9 |
| 20260503023305 | 13 | 187 | 8.0 | 12.9 | 0.00 | 0.00 | 0.00 | 41 | 1011.9 |
| 20260503022805 | 13 | 201 | 8.0 | 12.9 | 0.00 | 0.00 | 0.00 | 40 | 1011.9 |
| 20260503022305 | 13 | 166 | 8.0 | 11.3 | 0.00 | 0.00 | 0.00 | 40 | 1011.9 |
| 20260503021805 | 13 | 192 | 8.0 | 12.9 | 0.00 | 0.00 | 0.00 | 40 | 1011.9 |
| 20260503021305 | 13 | 180 | 8.0 | 12.9 | 0.00 | 0.00 | 0.00 | 40 | 1011.9 |
| 20260503020805 | 13 | 170 | 8.0 | 12.9 | 0.00 | 0.00 | 0.00 | 40 | 1011.9 |
| 20260503015805 | 13 | 185 | 6.4 | 11.3 | 0.00 | 0.00 | 0.00 | 39 | 1011.9 |
| 20260503015305 | 13 | 157 | 8.0 | 11.3 | 0.00 | 0.00 | 0.00 | 39 | 1011.9 |
| 20260503014805 | 13 | 155 | 8.0 | 11.3 | 0.00 | 0.00 | 0.00 | 39 | 1011.9 |
| 20260503014305 | 13 | 195 | 6.4 | 11.3 | 0.00 | 0.00 | 0.00 | 38 | 1011.9 |
| 20260503013805 | 13 | 192 | 6.4 | 11.3 | 0.00 | 0.00 | 0.00 | 38 | 1011.9 |
| 20260503013305 | 14 | 157 | 6.4 | 11.3 | 0.00 | 0.00 | 0.00 | 38 | 1011.9 |
| 20260503012306 | 14 | 154 | 8.0 | 11.3 | 0.00 | 0.00 | 0.00 | 37 | 1011.9 |
| 20260503011805 | 14 | 183 | 4.8 | 9.7 | 0.00 | 0.00 | 0.00 | 36 | 1011.9 |
| 20260503011305 | 14 | 174 | 4.8 | 9.7 | 0.00 | 0.00 | 0.00 | 36 | 1011.9 |
| 20260503010804 | 14 | 161 | 4.8 | 9.7 | 0.00 | 0.00 | 0.00 | 36 | 1011.9 |
| 20260503010305 | 14 | 205 | 3.2 | 9.7 | 0.00 | 0.00 | 0.00 | 36 | 1011.9 |
| 20260503005805 | 15 | 179 | 6.4 | 11.3 | 0.00 | 0.00 | 0.00 | 36 | 1011.9 |
| 20260503005305 | 15 | 185 | 4.8 | 11.3 | 0.00 | 0.00 | 0.00 | 35 | 1011.9 |
| 20260503004804 | 15 | 198 | 4.8 | 11.3 | 0.00 | 0.00 | 0.00 | 35 | 1011.9 |
| 20260503004305 | 15 | 165 | 4.8 | 11.3 | 0.00 | 0.00 | 0.00 | 35 | 1011.9 |
| 20260503003805 | 15 | 160 | 4.8 | 11.3 | 0.00 | 0.00 | 0.00 | 34 | 1011.9 |
| 20260503003304 | 15 | 180 | 4.8 | 11.3 | 0.00 | 0.00 | 0.00 | 34 | 1011.9 |
| 20260503002805 | 15 | 179 | 6.4 | 12.9 | 0.00 | 0.00 | 0.00 | 34 | 1011.9 |
| 20260503002305 | 15 | 177 | 3.2 | 11.3 | 0.00 | 0.00 | 0.00 | 33 | 1011.9 |
| 20260503001805 | 15 | 185 | 4.8 | 9.7 | 0.00 | 0.00 | 0.00 | 33 | 1011.9 |
| 20260503001305 | 16 | 212 | 4.8 | 9.7 | 0.00 | 0.00 | 0.00 | 33 | 1011.9 |